Buffalo, SD

10:45 AM MDT on May 27, 2018 (GMT -0600)
Buffalo

Weather History for K2WX - June, 2013

Change the Weather History Date:

Wednesday, June 12, 2013

  Actual Average Record
Temperature  
Mean Temperature 62 °F 62 °F  
Max Temperature 72 °F 74 °F 82 °F (2015)
Min Temperature 51 °F 50 °F 41 °F (2008)
Degree Days  
Heating Degree Days 3 4  
Month to date heating degree days 70 69  
Since 1 June heating degree days 70 69  
Since 1 July heating degree days 7600 7883  
Cooling Degree Days 0 1  
Month to date cooling degree days 3 12  
Year to date cooling degree days 13 18  
Since 1 June cooling degree days 3 12  
Growing Degree Days 11 (Base 50)    
Moisture  
Dew Point 51 °F    
Average Humidity 75    
Maximum Humidity 100    
Minimum Humidity 49    
Precipitation  
Precipitation 0.03 in 0.08 in 1.10 in (2006)
Month to date precipitation 0.38 1.31  
Year to date precipitation 4.54 7.35  
Sea Level Pressure  
Sea Level Pressure 30.01 in    
Wind  
Wind Speed 13 mph (ESE)    
Max Wind Speed 30 mph    
Max Gust Speed 36 mph    
T = Trace of Precipitation, MM = Missing Value Source: NWS Daily Summary

Daily Weather History Graph

Daily Weather History Graph

Search for Another Location

Airport or City:

Astronomy

Jun. 12, 2013 Rise Set
Actual Time 5:04 AM MDT 8:43 PM MDT
Civil Twilight 4:26 AM MDT 9:21 PM MDT
Nautical Twilight 3:36 AM MDT 10:12 PM MDT
Astronomical Twilight 2:28 AM MDT 11:20 PM MDT
Moon 8:55 AM MDT (6/12) 11:09 PM MDT (6/12)
Length of Visible Light 16h 54m
Length of Day
15h 39m
Waxing Crescent, 14% of the Moon is Illuminated
Jun 12
Waxing Crescent
Jun 16
First Quarter
Jun 23
Full
Jun 29
Last Quarter
Jul 8
New

Hourly Weather History & Observations

Time (MDT) Temp. Dew Point Humidity Pressure Visibility Wind Dir Wind Speed Gust Speed Precip Events Conditions
12:56 AM 53.1 °F 50.0 °F 89% 29.92 in - West 3.5 mph - N/A   Unknown
1:56 AM 52.0 °F 50.0 °F 93% 29.88 in - East 6.9 mph - 0.03 in   Unknown
2:56 AM 51.1 °F 50.0 °F 96% 29.87 in - NE 9.2 mph - N/A   Unknown
3:56 AM 52.0 °F 51.1 °F 97% 29.91 in - Calm Calm - N/A   Unknown
4:56 AM 54.0 °F 52.0 °F 93% 29.94 in - North 6.9 mph - N/A   Unknown
5:56 AM 54.0 °F 52.0 °F 93% 29.96 in - North 9.2 mph - N/A   Unknown
6:56 AM 55.9 °F 54.0 °F 93% 29.99 in - NE 12.7 mph - N/A   Unknown
7:56 AM 57.9 °F 53.1 °F 84% 30.01 in - NE 12.7 mph - N/A   Unknown
8:56 AM 59.0 °F 52.0 °F 78% 30.03 in - ENE 12.7 mph - N/A   Unknown
9:56 AM 61.0 °F 52.0 °F 72% 30.05 in - East 13.8 mph 21.9 mph N/A   Unknown
10:56 AM 63.0 °F 51.1 °F 65% 30.06 in - East 12.7 mph - N/A   Unknown
11:56 AM 63.0 °F 51.1 °F 65% 30.09 in - East 11.5 mph - N/A   Unknown
12:56 PM 66.9 °F 50.0 °F 54% 30.07 in - SE 9.2 mph - N/A   Unknown
1:56 PM 68.0 °F 50.0 °F 52% 30.06 in - SE 13.8 mph - N/A   Unknown
2:56 PM 66.9 °F 50.0 °F 54% 30.05 in - SE 11.5 mph - N/A   Unknown
3:56 PM 71.1 °F 51.1 °F 49% 30.04 in - ESE 11.5 mph 18.4 mph N/A   Unknown
4:56 PM 71.1 °F 51.1 °F 49% 30.02 in - SE 21.9 mph 25.3 mph N/A   Unknown
5:56 PM 69.1 °F 50.0 °F 51% 30.01 in - SE 17.3 mph - N/A   Unknown
6:56 PM 68.0 °F 48.9 °F 50% 30.01 in - SE 15.0 mph - N/A   Unknown
7:56 PM 64.9 °F 51.1 °F 61% 30.04 in - SE 8.1 mph - N/A   Unknown
8:56 PM 61.0 °F 52.0 °F 72% 30.03 in - SE 11.5 mph - N/A   Unknown
9:56 PM 59.0 °F 52.0 °F 78% 30.05 in - SE 13.8 mph - N/A   Unknown
10:56 PM 59.0 °F 53.1 °F 81% 30.12 in - South 11.5 mph - N/A   Unknown
11:56 PM 61.0 °F 52.0 °F 72% 30.03 in - SSE 21.9 mph - N/A   Unknown